FW0639 Weather Reports


time (UTC)temp
C
wind
direction
speed
KPH
gust
KPH
rain 1hr
cm
rain 24hr
cm
rain mn
cm
humidity
%
barometer
mb
20260504214305 10 342 3.2 25.7 0.00 0.00 0.00 49 1011.9
20260504213234 10 339 6.4 17.7 0.00 0.00 0.00 47 1012.0
20260504212257 11 340 4.8 19.3 0.00 0.00 0.00 48 1012.0
20260504210148 10 340 4.8 16.1 0.00 0.00 0.00 48 1012.2
20260504205203 10 338 4.8 20.9 0.00 0.00 0.00 48 1012.1
20260504204140 10 340 4.8 20.9 0.00 0.00 0.00 48 1012.1
20260504203203 10 340 3.2 19.3 0.00 0.00 0.00 48 1012.1
20260504202202 10 340 4.8 19.3 0.00 0.00 0.00 46 1012.2
20260504201214 11 339 4.8 19.3 0.00 0.00 0.00 45 1012.0
20260504200226 10 341 4.8 20.9 0.00 0.00 0.00 46 1012.0
20260504195202 10 338 4.8 20.9 0.00 0.00 0.00 46 1011.9
20260504194219 10 343 4.8 20.9 0.00 0.00 0.00 46 1011.9
20260504193240 10 344 3.2 20.9 0.00 0.00 0.00 48 1012.0
20260504192243 10 342 3.2 20.9 0.00 0.00 0.00 49 1012.1
20260504191302 10 343 3.2 14.5 0.00 0.00 0.00 47 1012.1
20260504190259 10 343 3.2 14.5 0.00 0.00 0.00 51 1012.0
20260504185317 10 342 1.6 12.9 0.00 0.00 0.00 52 1012.1
20260504184301 10 340 3.2 11.3 0.00 0.00 0.00 53 1012.2
20260504183239 10 344 3.2 20.9 0.00 0.00 0.00 52 1012.2
20260504182227 9 343 3.2 20.9 0.00 0.00 0.00 51 1012.4
20260504181154 9 344 3.2 22.5 0.00 0.00 0.00 50 1012.2
20260504180205 10 342 4.8 22.5 0.00 0.00 0.00 53 1012.2
20260504175133 10 341 4.8 22.5 0.00 0.00 0.00 52 1012.2
20260504174105 10 339 4.8 22.5 0.00 0.00 0.00 51 1012.1
20260504173130 10 341 3.2 19.3 0.00 0.00 0.00 53 1012.0
20260504172121 9 342 4.8 16.1 0.00 0.00 0.00 52 1012.0
20260504171128 10 340 3.2 19.3 0.00 0.00 0.00 52 1012.0
20260504170140 10 338 4.8 19.3 0.00 0.00 0.00 50 1012.1
20260504150759 7 210 3.2 9.7 0.00 0.00 0.00 65 1012.3
20260504140628 6 38 4.8 16.1 0.00 0.00 0.00 66 1012.6
20260504130659 6 53 1.6 3.2 0.00 0.00 0.00 71 1012.4
20260504110342 7 39 0.0 6.4 0.00 0.00 0.00 61 1012.0
20260504100416 8 28 0.0 0.0 0.00 0.00 0.00 60 1011.8
20260504050132 7 37 1.6 3.2 0.00 0.00 0.00 59 1005.6
20260504045058 8 35 0.0 0.0 0.00 0.00 0.00 59 1005.5
20260504044035 8 32 0.0 1.6 0.00 0.00 0.00 58 1005.5
20260504043010 8 29 0.0 3.2 0.00 0.00 0.00 60 1005.5
20260504041954 8 26 0.0 0.0 0.00 0.00 0.00 57 1005.5
20260504041014 8 22 1.6 3.2 0.00 0.00 0.00 57 1005.3
20260504034902 10 10 1.6 3.2 0.00 0.00 0.00 54 1005.4
20260504032741 11 1 0.0 3.2 0.00 0.00 0.00 47 1005.3
20260504031746 12 359 0.0 3.2 0.00 0.00 0.00 44 1005.2
20260504030739 13 351 0.0 3.2 0.00 0.00 0.00 41 1005.1
20260504025715 15 355 0.0 0.0 0.00 0.00 0.00 38 1005.1
20260504024644 15 351 0.0 0.0 0.00 0.00 0.00 38 1005.0
20260504023654 16 347 0.0 0.0 0.00 0.00 0.00 32 1004.8
20260504022640 17 345 0.0 0.0 0.00 0.00 0.00 31 1004.8
20260504021608 17 345 1.6 6.4 0.00 0.00 0.00 30 1004.8
20260504020540 18 343 1.6 4.8 0.00 0.00 0.00 29 1004.8
20260504015539 18 342 0.0 1.6 0.00 0.00 0.00 30 1004.7
20260504014526 19 339 0.0 0.0 0.00 0.00 0.00 29 1004.8
20260504013533 19 340 1.6 16.1 0.00 0.00 0.00 26 1004.8
20260504012518 20 353 1.6 8.0 0.00 0.00 0.00 26 1004.8
20260504010321 21 33 3.2 19.3 0.00 0.00 0.00 26 1004.9
20260504005301 21 41 3.2 17.7 0.00 0.00 0.00 26 1004.9
20260504004243 21 70 3.2 14.5 0.00 0.00 0.00 27 1004.9
20260504003248 22 101 4.8 14.5 0.00 0.00 0.00 26 1005.0
20260504002255 22 93 3.2 20.9 0.00 0.00 0.00 26 1005.1
20260504000127 22 113 3.2 20.9 0.00 0.00 0.00 28 1005.1
20260503235126 22 107 4.8 20.9 0.00 0.00 0.00 27 1005.2
20260503232944 22 95 6.4 25.7 0.00 0.00 0.00 26 1005.3
20260503231925 22 91 4.8 25.7 0.00 0.00 0.00 25 1005.3
20260503230912 22 115 4.8 17.7 0.00 0.00 0.00 25 1005.4
20260503224828 22 68 4.8 17.7 0.00 0.00 0.00 24 1005.7
20260503223810 22 54 4.8 17.7 0.00 0.00 0.00 25 1005.9
20260503222824 22 210 3.2 12.9 0.00 0.00 0.00 25 1006.0
20260503221801 22 45 3.2 17.7 0.00 0.00 0.00 27 1006.3
20260503220755 22 27 4.8 20.9 0.00 0.00 0.00 27 1006.4
20260503215810 22 56 4.8 20.9 0.00 0.00 0.00 27 1006.4